Temperature
16 16 16 16 16 16 16 16 16 16 16 16 16 16 16 16 16 16 16 15 16 16 16 16 16 16 16 15 15 15 15 15 15 15 15 15 15 15 15 15 15 15 15
16 16 16 16 16 16 16 16 16 16 16 16 16 16 16 16 16 16 15 15 15 15 15 15 16 16 16 15 15 15 15 15 15 15 15 15 15 15 15 15 15 15 15
16 16 16 16 16 16 16 16 16 16 16 16 15 15 15 15 15 15 15 15 15 15 15 15 15 15 15 15 15 15 15 15 15 15 15 15 15 15 15 15 15 15 15
16 16 16 15 15 15 15 15 15 15 15 15 15 15 15 15 15 15 15 15 15 15 15 15 15 15 15 15 15 15 15 15 15 15 15 15 15 15 15 15 15 15 15
16 16 15 15 15 15 15 15 15 15 15 15 15 15 15 15 15 15 15 15 15 15 15 15 15 15 14 14 14 14 14 14 14 14 14 14 15 15 14 14 14 14 14
16 16 15 15 15 15 15 15 15 15 15 15 15 15 15 15 15 15 15 15 15 15 15 15 15 15 14 14 14 14 14 14 14 14 14 14 14 14 14 14 14 14 14
15 15 15 15 15 15 15 15 15 15 15 15 15 14 14 14 14 14 14 14 14 14 14 14 14 14 14 14 14 14 14 14 14 14 14 14 14 14 14 14 14 14 14
15 15 15 15 15 15 15 14 14 14 14 14 14 14 14 14 14 14 14 14 14 14 14 14 14 14 14 14 14 14 14 14 13 13 13 13 13 13 13 13 13 13 13
15 15 15 15 15 15 14 14 14 14 14 14 14 14 14 14 14 14 14 14 14 14 14 14 14 14 14 14 14 14 14 13 13 13 13 13 13 13 13 13 13 13 13
15 15 15 15 15 15 14 14 14 14 14 14 14 14 14 14 14 13 13 13 13 13 13 14 14 14 14 14 13 13 13 13 13 13 13 13 13 13 13 13 13 13 13
15 15 15 15 15 15 14 14 14 14 14 14 14 14 14 14 14 13 13 13 13 13 13 13 13 13 13 13 13 13 13 13 13 13 13 13 13 13 13 13 13 13 12
15 15 15 15 15 14 14 14 14 14 14 14 14 14 14 14 14 13 13 13 13 13 13 13 13 13 13 13 13 13 13 13 13 13 13 13 12 12 12 12 12 12 12
15 15 15 15 14 14 14 14 14 14 14 14 14 14 14 13 13 13 13 13 13 13 13 13 13 13 13 13 13 13 12 12 12 12 12 12 12 12 12 12 12 12 12
15 15 15 14 14 14 14 14 14 14 14 13 13 13 13 13 13 13 13 13 13 12 12 12 13 12 12 12 12 12 12 12 12 12 12 12 12 12 12 12 12 12 12
15 15 15 14 14 14 14 14 14 14 14 13 13 13 13 13 13 13 13 13 13 12 12 12 12 12 12 12 12 12 12 12 12 12 12 12 12 12 12 12 12 11 11
15 15 14 14 14 14 14 14 14 13 13 13 13 13 13 13 13 13 13 13 13 13 12 12 12 12 12 12 12 12 12 12 11 11 11 11 11 11 11 11 11 11 11
14 14 14 14 14 14 14 14 13 13 13 13 13 13 13 13 13 13 13 12 12 12 12 12 12 12 12 12 12 12 11 11 11 11 11 11 11 11 11 11 11 11 11
14 14 14 14 14 14 13 13 13 13 13 13 13 13 13 13 13 12 12 12 12 12 12 12 12 12 12 12 12 11 11 11 11 11 11 11 11 11 11 11 11 11 11
14 14 14 13 13 13 13 13 13 13 13 12 12 12 12 12 12 12 12 12 12 12 12 12 12 12 12 11 11 11 11 11 11 11 11 11 11 11 11 11 11 11 11
13 13 13 13 13 13 13 13 13 12 12 12 12 12 12 12 12 12 12 12 12 12 12 12 12 12 11 11 11 11 11 11 11 11 11 11 11 11 11 10 10 10 10
13 13 13 13 13 12 12 12 12 12 12 12 12 12 12 11 11 11 11 11 11 11 11 11 11 11 11 11 11 11 11 11 11 10 10 10 10 10 10 10 10 10 10
13 12 12 12 12 12 12 12 12 12 12 11 11 11 11 11 11 11 11 11 11 11 11 11 11 11 11 11 11 11 10 10 10 10 10 10 10 10 10 10 10 10 10
12 12 12 12 12 12 12 12 11 11 11 11 11 11 11 11 11 11 11 11 11 11 11 10 11 11 11 11 10 10 10 10 10 10 10 10 10 10 10 10 10 10 10
12 12 11 11 11 11 11 11 11 11 11 11 10 10 10 10 10 10 10 10 10 10 10 10 10 10 10 10 10 10 10 10 10 10 10 10 10 10 10 10 10 9 9
11 11 11 11 11 11 11 11 11 10 10 10 10 10 10 10 10 10 10 10 10 10 10 10 10 10 10 10 10 9 9 9 9 9 9 9 9 9 9 10 9 9 9
11 11 11 10 10 10 10 10 10 10 10 10 10 10 10 10 10 10 10 10 10 10 10 10 10 9 9 9 9 9 9 9 9 9 9 9 9 9 9 9 9 9 9
Wind_Speed
3 2 2 3 3 4 4 4 4 5 5 5 6 6 5 5 6 6 6 9 9 9 9 10 10 9 9 9 9 9 9 8 8 8 8 8 8 8 7 7 6 6 5
4 3 2 2 3 4 5 5 4 4 4 4 5 5 5 5 5 6 6 7 8 8 9 9 9 9 9 8 8 8 8 8 7 7 7 7 7 7 7 6 6 6 6
6 4 3 2 2 4 5 5 5 4 4 4 4 4 4 5 5 5 5 5 6 7 7 8 8 8 8 8 7 7 7 7 7 7 8 7 7 6 6 6 6 6 6
7 5 3 2 3 5 4 3 3 4 3 3 3 3 3 3 3 4 5 5 5 5 6 7 7 7 7 7 7 7 7 7 7 8 8 7 7 6 6 6 6 5 5
7 6 3 3 4 4 3 3 3 3 3 2 2 3 2 2 2 3 3 4 4 5 5 5 5 6 6 6 6 6 6 6 6 7 7 7 7 6 6 6 5 5 5
6 6 4 3 4 3 3 3 3 3 2 2 3 3 3 2 2 2 2 3 4 4 5 5 5 4 5 5 5 6 5 6 6 6 6 6 6 6 6 5 5 5 5
6 5 4 3 3 3 3 3 3 3 2 2 4 3 4 4 3 2 2 2 2 3 4 4 5 5 4 4 4 4 4 5 5 5 5 6 6 6 6 6 5 5 5
5 6 5 3 3 3 3 3 3 3 1 2 3 3 2 3 3 3 2 2 2 2 3 4 5 5 4 4 4 4 5 4 4 4 4 4 5 5 5 5 5 5 5
4 5 5 4 4 3 3 3 3 4 2 1 2 3 3 2 1 3 2 2 2 2 2 3 4 4 4 4 4 3 3 3 3 3 3 3 4 4 4 4 4 5 5
4 4 4 4 4 3 3 3 3 3 3 2 0 1 2 4 2 0 2 2 2 1 1 1 2 2 3 3 3 3 3 2 2 2 2 3 3 3 3 3 4 4 4
2 3 4 4 4 4 4 3 3 3 3 3 2 2 2 1 2 3 1 2 2 2 0 1 2 2 2 3 2 2 2 2 2 2 2 3 3 2 2 3 3 3 4
2 2 3 3 4 4 4 4 3 4 3 3 2 3 3 2 2 2 2 2 1 2 1 1 1 2 2 3 3 2 2 2 2 2 3 3 3 3 3 2 3 3 3
2 3 3 3 3 3 4 3 3 3 4 3 3 2 3 3 3 3 3 2 1 1 1 1 1 2 2 3 3 3 2 2 2 1 1 2 3 3 4 3 3 3 3
4 4 4 3 3 3 3 3 3 3 3 3 3 3 2 2 3 3 4 4 1 1 1 2 1 2 2 3 4 3 2 2 2 1 1 1 1 2 2 2 2 3 3
4 4 4 4 3 3 3 3 2 3 2 3 3 3 2 2 2 3 3 4 4 2 3 3 2 2 3 3 4 4 3 3 3 3 2 1 1 1 1 2 2 2 3
3 4 4 4 3 3 3 3 2 2 3 2 2 2 2 1 2 2 3 3 3 4 3 3 3 2 3 3 4 4 4 4 5 4 4 3 2 2 1 1 1 1 2
4 5 5 4 4 3 3 3 3 3 3 2 1 2 2 1 1 2 2 3 3 3 3 3 2 1 2 2 2 3 4 4 4 5 5 5 4 3 2 2 2 2 2
3 4 4 4 4 4 3 3 3 3 3 2 1 1 2 1 1 2 2 3 3 3 4 3 2 1 2 3 3 2 3 3 5 6 6 5 5 4 4 4 3 3 3
3 3 4 4 4 4 4 4 4 3 3 3 2 2 2 1 2 1 2 2 3 3 2 3 2 2 1 1 1 1 1 2 4 5 6 7 7 6 6 5 5 4 4
3 3 4 4 5 5 5 4 4 4 3 2 2 2 2 2 3 3 2 3 2 2 2 2 2 2 1 1 1 1 2 2 2 3 4 6 7 7 7 7 6 6 6
3 3 3 3 3 4 4 5 4 4 3 2 2 2 3 3 3 2 2 2 3 2 2 2 2 1 1 1 2 2 3 2 2 2 2 3 3 4 6 8 8 7 7
1 2 3 4 3 3 3 5 5 4 3 3 2 2 3 3 2 3 3 3 3 4 4 3 3 3 4 4 3 3 3 1 2 2 2 3 2 3 4 7 8 9 8
2 2 2 4 4 3 4 5 6 4 3 3 3 3 2 2 2 2 3 2 3 4 5 5 4 5 5 5 4 3 3 3 4 3 2 3 2 3 4 6 9 9 9
2 2 2 3 3 3 4 5 5 4 3 3 3 3 3 3 2 2 2 2 2 3 4 3 4 5 5 4 5 5 5 3 1 1 3 3 2 3 3 5 8 9 9
2 2 2 3 3 3 3 4 4 3 2 3 3 3 3 3 3 2 2 2 2 3 3 3 4 4 4 4 4 3 2 1 2 3 2 3 2 2 2 3 6 8 10
3 3 2 2 3 3 3 4 5 3 2 2 2 2 3 3 3 2 3 3 3 3 2 1 1 2 2 2 4 5 5 3 2 3 3 3 2 1 2 2 2 3 5
Wind_Direction
118 112 94 76 71 73 73 69 73 82 86 91 94 95 95 96 95 91 87 92 96 98 97 94 93 91 89 84 80 78 76 75 75 74 71 70 69 69 68 66 65 62 61
126 118 96 78 76 82 87 87 87 89 85 87 86 90 95 97 100 100 94 88 91 97 97 95 93 91 88 84 80 78 76 74 73 73 72 69 68 67 65 62 61 60 57
127 121 109 96 93 98 92 87 79 80 77 74 71 74 85 86 98 105 105 97 90 93 101 98 94 92 90 88 85 80 79 76 73 73 72 68 67 67 63 58 57 58 56
133 123 114 113 116 100 90 88 76 79 74 74 71 66 76 84 90 101 103 105 101 95 96 100 96 91 89 89 86 82 81 80 76 72 69 65 63 62 59 55 52 52 56
127 123 120 120 115 96 82 97 88 100 99 83 81 66 62 73 80 96 95 113 120 113 107 101 100 94 88 88 88 85 84 84 81 76 70 63 58 54 55 52 46 46 48
126 119 118 116 112 101 87 90 93 84 101 104 89 58 38 44 61 77 92 105 114 116 116 107 92 86 85 84 84 82 85 87 82 75 70 63 57 51 51 48 45 46 44
134 122 117 119 117 124 130 122 110 94 73 86 80 45 18 27 41 48 63 84 91 108 110 107 97 84 74 75 72 73 82 87 82 76 69 63 58 49 45 41 40 41 41
145 138 134 144 141 127 119 123 117 111 97 93 109 94 34 3 2 21 36 78 84 96 97 105 102 94 86 76 67 70 72 78 80 74 69 63 57 48 40 41 39 38 40
155 149 147 148 152 145 155 160 144 135 143 98 113 133 137 198 302 342 9 39 59 73 72 103 109 108 107 93 78 73 74 68 78 74 70 63 58 53 45 38 35 34 38
156 158 155 156 160 160 165 177 163 152 143 160 244 103 153 152 150 319 337 355 21 70 98 109 119 121 123 122 109 95 86 70 72 65 63 67 52 54 44 29 33 35 41
171 161 161 160 168 171 175 173 155 155 158 166 174 163 122 96 118 147 221 310 349 340 321 163 142 153 152 151 145 134 113 90 82 64 64 57 39 28 32 31 36 38 38
203 183 164 164 173 176 182 184 176 170 175 173 178 171 161 159 176 157 176 220 268 300 324 314 158 174 179 177 177 168 143 120 99 77 57 41 31 27 25 26 36 37 35
199 202 178 172 175 183 184 178 174 182 179 177 186 190 184 187 168 155 153 177 216 288 324 313 262 196 185 180 180 187 175 159 138 105 56 29 19 19 21 24 31 33 31
197 192 182 177 177 177 176 171 176 191 182 188 197 190 190 200 176 167 164 157 150 305 301 269 278 227 210 192 193 190 190 202 206 194 197 343 352 8 14 18 16 25 22
190 181 180 179 180 175 168 163 169 188 181 192 201 200 202 217 196 185 173 165 160 193 248 251 246 244 222 210 204 193 203 221 227 225 226 231 262 335 355 352 3 13 12
191 176 183 182 179 174 167 159 168 180 166 189 191 191 216 230 209 192 179 174 169 173 211 236 231 230 212 223 224 209 213 227 232 235 235 233 236 254 269 271 297 319 330
191 183 182 181 182 181 174 161 171 166 170 193 200 194 230 224 204 202 181 172 176 163 192 253 244 220 195 212 222 222 225 227 234 242 241 238 233 237 242 242 243 256 261
195 190 180 172 176 178 169 167 179 172 169 180 200 198 246 224 202 209 187 188 190 180 178 217 245 220 219 214 203 211 223 232 238 247 244 238 234 237 243 247 240 242 245
186 182 170 172 178 177 173 178 177 175 178 187 186 193 232 192 211 221 195 197 202 191 171 182 222 223 225 204 193 233 225 249 255 253 244 243 241 239 242 247 248 243 242
178 181 183 185 185 182 178 178 177 179 187 199 204 212 217 199 211 214 208 210 197 180 172 177 205 219 224 223 164 205 256 257 258 260 252 250 246 243 243 245 248 246 244
187 185 177 182 185 186 186 176 180 183 190 208 225 238 236 230 229 214 206 201 186 185 183 192 211 216 222 198 212 210 221 250 267 244 249 258 243 241 245 246 247 247 245
180 168 176 176 173 189 177 172 174 180 187 198 223 250 254 248 254 247 242 215 190 187 198 199 217 219 227 221 213 206 198 202 265 247 195 259 221 246 245 240 243 243 243
164 160 188 177 180 193 171 172 175 176 186 206 220 236 255 267 265 249 265 266 244 228 206 199 209 225 226 217 196 206 211 207 229 230 179 256 253 250 250 249 244 243 241
171 179 185 183 182 197 176 172 175 177 186 212 224 224 225 249 250 228 229 250 263 256 236 219 214 232 234 224 207 208 209 214 250 243 176 222 247 250 267 254 250 241 235
174 173 169 176 182 213 184 170 162 173 193 234 245 235 226 235 247 214 192 220 264 280 276 251 232 237 241 230 197 159 158 166 249 257 206 194 231 254 275 273 258 245 238
173 160 158 190 193 212 196 172 163 172 202 241 258 254 246 241 247 230 204 207 234 256 266 285 311 311 286 249 202 189 188 193 212 243 223 188 215 190 273 282 275 256 240
Height
1538 1538 1538 1538 1538 1538 1537 1537 1537 1538 1538 1538 1539 1539 1539 1539 1539 1539 1539 1539 1539 1538 1538 1538 1537 1537 1537 1537 1536 1536 1536 1535 1535 1535 1535 1535 1534 1534 1533 1533 1533 1532 1532
1539 1539 1538 1539 1538 1538 1538 1538 1539 1539 1539 1539 1539 1540 1540 1540 1540 1540 1540 1540 1540 1540 1539 1539 1539 1538 1538 1537 1537 1537 1536 1536 1536 1535 1535 1535 1535 1534 1534 1533 1533 1532 1532
1539 1539 1539 1539 1539 1539 1539 1539 1539 1539 1540 1540 1540 1540 1541 1541 1541 1541 1541 1541 1541 1541 1540 1540 1540 1539 1539 1538 1538 1537 1537 1536 1536 1536 1535 1535 1535 1535 1534 1534 1533 1532 1532
1540 1539 1539 1539 1539 1539 1539 1539 1539 1540 1540 1540 1540 1541 1541 1542 1542 1542 1542 1542 1542 1542 1541 1541 1541 1540 1540 1539 1539 1538 1537 1537 1536 1536 1536 1535 1535 1535 1534 1534 1533 1532 1532
1540 1540 1539 1540 1540 1540 1540 1540 1540 1540 1540 1540 1541 1541 1542 1542 1542 1542 1542 1542 1542 1542 1542 1542 1541 1541 1540 1540 1539 1539 1538 1537 1537 1536 1536 1535 1535 1534 1534 1534 1533 1532 1532
1539 1539 1539 1539 1539 1540 1540 1540 1540 1540 1540 1540 1541 1541 1542 1542 1542 1542 1543 1543 1543 1543 1542 1542 1542 1541 1541 1540 1540 1539 1538 1538 1537 1537 1536 1535 1535 1534 1534 1533 1533 1532 1531
1539 1539 1539 1539 1539 1539 1539 1540 1540 1540 1540 1540 1541 1541 1542 1542 1543 1543 1543 1543 1543 1543 1543 1542 1542 1542 1541 1541 1540 1539 1539 1538 1538 1537 1536 1535 1535 1534 1534 1533 1533 1532 1531
1538 1538 1538 1538 1539 1539 1539 1539 1539 1540 1540 1540 1541 1541 1542 1544 1543 1543 1543 1543 1543 1543 1543 1542 1542 1542 1541 1541 1540 1540 1539 1538 1538 1537 1536 1535 1535 1534 1533 1533 1532 1532 1531
1538 1538 1538 1538 1538 1538 1538 1538 1539 1539 1540 1540 1541 1541 1541 1542 1542 1543 1543 1543 1542 1542 1542 1542 1542 1542 1541 1541 1540 1540 1539 1538 1537 1537 1536 1535 1534 1534 1533 1532 1532 1531 1531
1536 1536 1536 1537 1537 1537 1538 1538 1538 1539 1539 1539 1540 1540 1541 1541 1542 1542 1543 1543 1542 1542 1542 1541 1541 1541 1541 1541 1540 1539 1539 1538 1537 1537 1536 1535 1534 1533 1532 1532 1531 1531 1530
1535 1535 1535 1535 1536 1536 1536 1537 1537 1538 1538 1538 1539 1539 1540 1540 1541 1541 1541 1542 1542 1542 1541 1541 1541 1541 1540 1540 1539 1539 1538 1538 1537 1536 1536 1535 1534 1532 1532 1531 1530 1530 1529
1533 1533 1533 1533 1534 1534 1535 1535 1536 1536 1537 1537 1537 1538 1538 1539 1539 1539 1539 1540 1540 1540 1540 1540 1540 1540 1540 1539 1539 1538 1537 1537 1537 1536 1535 1534 1533 1532 1531 1531 1530 1529 1528
1530 1530 1531 1531 1532 1532 1533 1533 1534 1534 1535 1535 1535 1536 1537 1537 1538 1538 1538 1538 1538 1538 1539 1539 1539 1539 1538 1538 1538 1537 1537 1536 1536 1535 1535 1534 1533 1532 1531 1530 1529 1528 1528
1528 1528 1529 1529 1529 1530 1531 1531 1531 1532 1532 1533 1533 1534 1534 1535 1536 1536 1536 1536 1536 1537 1537 1537 1537 1537 1537 1537 1536 1536 1536 1535 1535 1534 1534 1533 1532 1531 1530 1529 1528 1528 1527
1525 1526 1526 1527 1527 1528 1528 1529 1529 1529 1530 1530 1531 1531 1532 1533 1533 1533 1534 1534 1535 1534 1534 1535 1535 1535 1535 1535 1535 1534 1534 1534 1534 1533 1533 1532 1531 1530 1529 1528 1528 1527 1526
1522 1523 1523 1524 1524 1525 1525 1526 1526 1527 1527 1528 1528 1529 1529 1530 1530 1531 1531 1532 1532 1533 1532 1532 1533 1533 1533 1533 1533 1532 1532 1532 1532 1532 1531 1530 1530 1529 1528 1527 1527 1526 1525
1519 1520 1520 1521 1521 1522 1522 1523 1523 1524 1524 1525 1525 1526 1526 1527 1527 1528 1528 1529 1529 1530 1530 1530 1530 1531 1531 1531 1531 1531 1531 1530 1530 1530 1529 1528 1528 1527 1527 1526 1525 1525 1524
1516 1517 1517 1518 1518 1519 1519 1520 1520 1521 1521 1522 1522 1523 1524 1524 1524 1525 1525 1526 1526 1527 1527 1527 1527 1528 1528 1528 1528 1528 1528 1528 1528 1528 1527 1526 1526 1525 1525 1524 1523 1523 1522
1513 1513 1514 1515 1515 1516 1516 1517 1517 1518 1519 1519 1520 1520 1521 1521 1521 1522 1522 1523 1523 1524 1524 1524 1524 1525 1525 1525 1525 1525 1526 1525 1525 1525 1525 1524 1524 1523 1523 1522 1522 1521 1521
1510 1510 1510 1511 1512 1512 1513 1514 1514 1515 1516 1516 1517 1517 1518 1518 1518 1519 1519 1520 1520 1521 1521 1521 1521 1522 1522 1522 1522 1522 1522 1522 1522 1522 1522 1522 1522 1521 1520 1520 1519 1519 1519
1506 1507 1507 1508 1509 1509 1510 1510 1511 1512 1513 1513 1513 1514 1514 1515 1515 1516 1516 1516 1517 1517 1517 1517 1518 1518 1518 1518 1519 1519 1519 1519 1519 1519 1519 1519 1519 1518 1518 1517 1517 1517 1516
1503 1503 1504 1504 1505 1506 1507 1507 1508 1509 1509 1510 1510 1510 1511 1511 1512 1512 1513 1513 1514 1514 1513 1514 1514 1514 1514 1515 1515 1515 1515 1515 1515 1516 1516 1515 1516 1515 1515 1515 1514 1514 1514
1500 1500 1500 1501 1501 1502 1503 1504 1505 1505 1506 1506 1507 1507 1507 1508 1508 1509 1509 1509 1510 1510 1511 1511 1510 1510 1511 1511 1511 1511 1511 1511 1512 1512 1512 1511 1512 1511 1512 1511 1511 1511 1511
1496 1497 1497 1498 1498 1499 1500 1501 1501 1502 1503 1503 1503 1503 1504 1504 1504 1505 1505 1505 1505 1505 1506 1506 1506 1507 1507 1508 1508 1508 1508 1508 1508 1509 1509 1508 1508 1508 1508 1508 1508 1508 1508
1493 1494 1494 1495 1495 1496 1497 1497 1498 1499 1499 1500 1500 1500 1500 1500 1501 1501 1501 1501 1501 1501 1502 1502 1502 1502 1503 1503 1504 1504 1504 1504 1503 1504 1504 1504 1504 1504 1504 1504 1504 1504 1504
1490 1491 1491 1492 1493 1493 1494 1494 1495 1495 1495 1496 1496 1497 1497 1497 1497 1498 1498 1497 1497 1497 1497 1497 1498 1498 1498 1499 1500 1500 1500 1500 1499 1499 1500 1500 1500 1500 1500 1500 1500 1501 1501